GFSFLT1_850_temp_000.txt.gz
Temp
22 21 21 20 20 19 19 17 16 15 15 15 14 14 14 14 13 13 12 12 11 11 11 11 11 11 11 11 11 11 11 11
20 19 19 19 18 18 18 16 16 15 15 15 14 14 13 13 12 12 11 11 11 11 10 10 10 10 10 10 10 10 10 10
18 17 17 17 17 16 16 15 14 14 14 13 13 12 12 12 11 11 10 10 10 9 9 9 9 9 9 8 9 9 9 9
17 16 15 15 15 15 15 14 13 13 12 12 11 12 12 11 12 11 10 10 9 8 8 8 8 8 7 7 7 8 8 8
17 16 14 14 14 14 13 12 12 12 12 13 12 11 10 10 11 9 9 8 8 8 8 7 7 6 6 6 6 6 6 6
16 15 13 12 12 12 12 12 11 12 11 11 9 9 9 9 9 8 8 7 7 7 7 6 6 6 6 5 5 5 4 4
15 14 13 12 12 11 11 12 11 11 10 9 9 9 8 8 7 7 7 7 6 5 5 5 4 4 4 4 3 3 3 3
16 15 14 13 12 12 12 11 11 11 11 10 9 8 7 7 6 6 6 5 4 4 3 3 3 3 2 2 2 2 1 1
15 14 13 13 12 12 12 11 10 10 10 9 8 7 7 6 5 5 4 3 3 3 3 2 2 2 1 1 1 1 0 0
15 14 14 13 12 12 12 11 10 10 9 8 7 6 5 5 4 3 3 3 2 2 1 1 1 1 0 0 -0 -0 -0 -1
14 14 14 13 12 11 11 10 9 9 8 7 7 6 5 4 3 3 3 2 2 0 -0 -0 -1 -1 -2 -2 -2 -2 -2 -2
14 13 12 12 11 10 10 9 8 8 6 6 5 4 4 4 3 3 2 1 1 -0 -1 -1 -2 -3 -2 -2 -3 -3 -3 -3
12 11 11 10 9 9 8 8 7 6 5 4 4 4 3 3 2 2 1 -1 -1 -1 -2 -2 -2 -2 -3 -3 -3 -3 -4 -4
11 10 9 9 8 8 7 6 6 5 5 4 3 3 2 2 1 0 -0 -1 -1 -1 -2 -2 -2 -3 -3 -3 -3 -3 -4 -4
10 9 8 8 7 6 7 6 6 5 4 4 3 2 2 1 0 -0 -1 -1 -1 -2 -2 -2 -3 -3 -3 -3 -4 -4 -4 -5
8 7 7 7 6 6 6 6 6 5 4 3 3 3 1 1 0 -1 -1 -2 -2 -2 -2 -3 -3 -3 -4 -4 -5 -5 -6 -6
7 7 6 7 6 6 6 5 5 5 3 3 3 1 1 0 -1 -1 -2 -2 -2 -2 -3 -3 -3 -4 -5 -5 -6 -6 -7 -8
6 6 7 6 5 5 5 5 5 5 4 4 2 0 -0 -0 -2 -2 -2 -2 -2 -3 -3 -3 -4 -5 -6 -6 -7 -8 -8 -9
6 6 6 5 5 5 4 4 3 3 3 4 1 1 -0 -1 -1 -2 -3 -2 -2 -3 -3 -4 -5 -5 -6 -7 -8 -9 -9 -10

GFSFLT1_850_temp_003.txt.gz
Temp
19 19 19 19 19 19 17 16 15 15 15 14 14 14 14 13 13 13 12 12 12 12 11 10 10 10 10 10 10 10 10 10
17 17 18 18 18 16 15 15 15 15 15 15 14 14 13 13 12 13 13 12 12 11 11 10 9 9 9 9 10 10 9 9
16 16 16 16 16 16 15 15 16 15 14 14 14 13 13 13 13 12 11 11 10 10 9 9 9 9 9 9 8 8 8 8
16 16 15 15 16 15 15 15 14 14 13 13 13 13 12 11 11 10 9 9 9 8 8 8 8 8 8 8 7 7 7 7
15 15 15 14 13 14 14 14 13 13 13 12 11 11 10 9 9 9 8 8 8 8 7 7 7 7 7 6 6 6 6 5
14 14 14 13 13 13 13 12 12 12 11 11 11 9 9 9 8 7 7 7 7 7 7 7 6 6 6 5 5 4 4 4
15 14 13 13 13 13 12 12 11 11 11 10 10 9 8 7 7 7 7 6 6 7 5 4 4 4 3 3 3 3 3 3
14 13 13 13 12 12 12 12 12 11 10 9 9 8 8 7 6 6 6 6 5 4 3 3 3 2 2 2 2 2 1 1
15 14 13 13 13 12 12 11 11 10 10 10 9 8 7 5 5 4 5 4 3 3 3 2 2 1 0 0 0 0 -0 -1
14 13 12 12 12 11 11 11 10 10 10 9 8 7 5 4 3 4 3 3 3 2 2 1 0 -0 -1 -2 -2 -2 -2 -2
13 12 12 11 11 10 10 10 9 9 8 7 6 5 5 3 3 4 3 3 2 2 1 -0 -1 -1 -2 -2 -3 -3 -3 -3
12 11 11 10 10 9 9 8 8 7 7 6 6 5 4 4 4 3 3 3 2 1 -1 -1 -2 -2 -2 -3 -3 -3 -4 -4
11 10 10 9 9 9 8 7 6 6 6 6 5 4 4 4 4 3 2 2 0 -1 -1 -2 -2 -2 -3 -3 -3 -4 -4 -4
10 9 9 8 7 7 6 6 6 6 6 5 5 4 2 2 2 1 1 0 -0 -1 -2 -2 -2 -3 -3 -3 -3 -4 -4 -4
8 8 7 7 7 6 6 6 5 5 5 5 5 4 3 2 1 -1 -2 -1 -1 -2 -2 -2 -2 -3 -3 -3 -4 -4 -4 -5
7 7 6 6 6 6 5 5 5 5 4 3 3 3 2 1 0 -1 -2 -1 -2 -2 -2 -2 -3 -3 -3 -4 -4 -5 -5 -6
6 6 6 6 5 5 4 4 4 3 3 3 2 2 2 1 -1 -2 -2 -2 -2 -2 -2 -3 -3 -3 -4 -4 -5 -6 -7 -8
6 6 6 5 5 4 4 3 3 2 2 1 1 0 0 0 -1 -2 -2 -2 -2 -2 -3 -3 -3 -4 -5 -6 -7 -7 -8 -8
6 6 5 5 4 3 3 2 2 1 1 0 0 -0 -0 -1 -2 -3 -2 -2 -2 -2 -3 -3 -4 -5 -6 -7 -8 -8 -9 -9

GFSFLT1_850_temp_006.txt.gz
Temp
18 18 19 19 18 17 17 16 15 15 14 14 14 14 13 13 13 12 13 12 12 12 11 11 10 9 9 9 9 9 9 9
17 17 17 18 16 15 14 14 14 14 14 14 14 13 12 13 13 12 12 12 11 11 10 9 9 8 8 8 8 8 8 8
15 15 15 15 14 14 13 14 14 13 13 12 12 12 12 12 12 11 11 11 11 10 8 8 8 8 7 7 7 7 7 7
14 14 14 14 13 13 13 13 13 13 13 12 12 12 12 12 11 11 10 10 9 8 7 7 7 7 6 6 6 6 5 5
14 14 14 14 13 13 13 13 13 13 13 13 12 12 11 11 10 9 9 8 7 7 7 7 6 6 5 5 4 4 4 4
15 15 14 14 13 13 13 13 13 12 12 12 11 11 10 9 9 8 7 6 6 6 6 6 5 5 3 3 3 2 2 2
16 15 14 13 13 13 12 12 12 11 11 10 10 10 9 8 7 6 6 5 4 4 4 4 3 3 2 1 1 1 1 0
15 14 13 13 13 12 12 11 11 11 10 10 9 9 8 7 5 5 4 3 4 3 3 3 2 2 1 0 -0 -0 -0 -1
13 13 12 11 11 11 11 11 11 10 10 9 8 7 6 5 5 3 3 2 3 3 2 2 1 0 -0 -1 -1 -2 -2 -3
12 11 12 11 11 11 10 9 9 9 8 7 6 6 6 5 5 5 3 3 3 2 2 2 1 -0 -1 -2 -2 -3 -3 -3
11 10 10 10 9 9 9 8 8 7 6 6 6 6 6 5 5 4 4 3 3 2 2 1 -0 -2 -2 -3 -3 -3 -3 -4
9 9 8 8 8 8 7 6 6 5 6 5 5 5 5 4 3 3 1 1 -0 1 1 -1 -1 -2 -2 -3 -3 -3 -3 -4
8 8 8 7 7 7 6 6 6 6 5 5 4 3 3 3 3 2 2 0 0 -0 -1 -1 -2 -2 -3 -3 -3 -3 -4 -4
8 8 8 7 6 6 6 6 6 5 5 5 4 3 3 2 2 2 0 -1 -2 -3 -2 -2 -2 -2 -3 -3 -3 -4 -4 -4
8 8 6 6 6 6 5 5 5 5 4 4 3 3 2 2 1 -0 -2 -1 -2 -2 -2 -2 -2 -3 -3 -3 -4 -4 -5 -5
7 6 6 6 5 5 5 5 4 4 3 3 2 1 1 0 -0 -0 -1 -1 -1 -2 -2 -3 -3 -3 -3 -4 -4 -5 -6 -6
6 6 5 5 5 5 4 4 3 3 2 2 1 0 -0 -1 -1 -2 -2 -2 -2 -3 -4 -3 -3 -3 -4 -5 -6 -6 -7 -8
6 6 5 5 5 4 4 3 3 2 1 1 1 -0 -1 -2 -2 -2 -2 -3 -3 -3 -3 -3 -4 -4 -5 -5 -6 -8 -8 -9
6 5 5 5 4 4 3 2 2 2 1 1 -0 -1 -1 -2 -3 -3 -3 -3 -3 -3 -3 -3 -4 -5 -6 -7 -8 -9 -9 -10

GFSFLT1_850_temp_009.txt.gz
Temp
17 18 18 18 17 16 16 14 12 12 13 13 13 13 13 12 12 12 12 12 12 12 11 10 10 9 9 8 8 8 8 7
16 17 18 18 17 16 16 13 12 13 12 13 13 12 12 12 12 12 11 11 10 11 11 10 9 8 7 7 7 7 7 6
15 16 17 16 15 15 14 14 12 12 12 12 11 12 12 11 11 10 10 10 10 10 9 8 7 7 7 6 6 6 5 5
14 15 14 14 14 13 13 13 13 12 12 12 12 12 11 11 11 11 10 9 9 8 7 6 6 6 6 5 5 4 3 3
14 14 13 13 13 13 13 13 13 12 12 12 12 11 11 11 10 10 9 7 7 6 5 5 4 5 5 4 3 3 2 1
14 14 14 14 13 13 12 12 12 11 11 11 10 10 10 9 8 7 6 5 5 4 4 4 4 3 3 2 2 2 1 -0
13 13 13 13 12 12 11 11 11 11 10 10 10 9 8 7 7 6 5 4 4 4 4 4 3 3 2 2 2 0 -0 -1
14 13 12 12 12 11 11 11 11 10 10 10 9 8 7 6 6 6 5 5 5 4 4 2 3 2 1 0 -1 -1 -2 -2
13 12 12 11 11 11 11 11 10 9 8 7 6 6 6 5 5 4 4 4 4 3 1 1 -0 0 1 -1 -1 -2 -3 -3
12 12 11 10 10 10 9 9 8 7 6 6 6 5 5 4 4 4 3 3 3 2 0 -1 -2 -2 -1 -2 -3 -3 -3 -4
10 10 9 9 10 9 9 8 7 7 6 6 5 4 4 3 3 3 3 2 2 1 -0 -2 -2 -3 -2 -2 -3 -3 -3 -4
9 9 9 9 8 8 7 6 6 6 5 5 5 4 4 3 3 2 2 2 1 -0 -1 -3 -3 -2 -2 -3 -3 -3 -3 -4
8 8 8 7 7 6 6 6 6 5 5 5 4 3 3 2 2 1 1 -0 -0 -1 -1 -2 -2 -2 -2 -3 -3 -3 -4 -4
8 7 7 7 6 6 6 5 5 5 4 4 3 3 2 2 1 0 0 -0 -1 -1 -2 -2 -2 -2 -3 -3 -3 -4 -4 -5
7 7 6 6 6 6 5 5 5 4 4 3 3 2 1 0 -0 -1 -1 -2 -2 -2 -2 -2 -3 -3 -3 -3 -4 -4 -5 -6
7 6 6 6 5 5 5 4 4 4 3 3 2 1 0 -1 -1 -1 -2 -3 -3 -3 -3 -3 -4 -3 -3 -4 -5 -5 -6 -6
7 6 6 5 5 5 4 4 4 3 3 2 1 0 -1 -1 -2 -3 -3 -3 -3 -3 -4 -4 -3 -3 -4 -5 -5 -6 -7 -8
6 6 6 5 5 4 4 4 3 2 1 1 -0 -1 -1 -2 -2 -3 -3 -4 -4 -4 -3 -3 -3 -4 -4 -5 -6 -7 -8 -9
6 6 5 5 4 4 3 2 2 1 0 -0 -1 -2 -2 -2 -3 -3 -3 -3 -4 -3 -3 -4 -4 -4 -5 -6 -7 -8 -9 -10

GFSFLT1_850_temp_012.txt.gz
Temp
16 16 16 17 16 16 16 15 13 12 12 12 11 11 11 11 11 11 11 11 11 11 11 10 9 9 8 8 8 7 7 7
15 15 15 16 14 14 15 13 13 11 11 10 10 11 11 11 11 11 11 10 10 10 10 9 9 8 7 7 6 6 6 6
14 13 13 13 12 12 13 13 12 11 11 11 12 12 11 11 11 11 10 10 10 9 9 8 7 6 5 5 5 5 5 4
13 13 13 13 14 13 13 12 12 11 12 12 12 11 11 11 10 10 10 9 9 8 7 7 6 5 5 5 5 4 4 3
14 14 14 14 13 13 12 12 12 12 12 12 11 11 10 10 9 9 8 7 6 6 5 5 5 5 4 3 3 3 2 2
15 14 13 13 12 12 12 12 12 11 11 11 10 10 9 8 8 7 7 5 5 5 5 4 4 3 2 2 2 2 1 -0
13 13 13 12 12 12 11 11 11 10 10 10 9 8 7 6 6 5 5 5 4 4 4 4 3 1 1 0 0 -0 -1 -2
12 12 12 12 11 11 11 10 10 10 9 9 8 7 6 5 5 4 4 4 3 3 3 2 1 1 -0 -2 -2 -2 -2 -3
10 10 11 11 11 11 10 9 9 9 8 7 6 6 5 5 4 4 4 3 3 2 2 2 2 0 -1 -1 -2 -2 -3 -3
10 10 10 10 10 10 9 9 8 7 6 6 5 5 4 4 4 4 3 3 2 2 1 1 -1 -1 -3 -3 -2 -3 -3 -4
9 9 9 9 9 9 8 8 7 6 6 5 5 4 4 4 3 3 3 2 1 1 0 -0 -1 -2 -2 -3 -2 -3 -3 -4
9 9 9 9 9 9 8 7 6 6 5 5 4 4 3 3 3 2 1 1 0 0 -0 -1 -2 -3 -2 -3 -3 -3 -3 -4
8 9 9 9 8 7 7 6 6 5 5 4 3 3 2 2 1 1 1 -0 -1 -1 -1 -2 -3 -2 -2 -3 -3 -3 -4 -4
8 8 8 7 7 6 6 5 5 5 4 3 3 2 2 1 0 0 -0 -1 -2 -2 -2 -3 -3 -2 -3 -3 -3 -4 -4 -4
8 7 7 6 6 5 4 5 5 4 3 3 2 1 1 0 -0 -1 -1 -2 -3 -3 -3 -3 -3 -3 -3 -3 -3 -4 -5 -5
7 7 6 6 5 5 5 5 4 3 3 2 1 1 0 -1 -1 -2 -2 -3 -3 -3 -3 -4 -3 -3 -3 -4 -4 -5 -5 -6
7 6 6 6 5 5 5 4 3 3 2 1 1 -0 -1 -1 -2 -2 -3 -3 -4 -4 -4 -4 -4 -3 -4 -4 -5 -5 -6 -7
7 6 6 6 6 5 4 3 3 2 2 1 -0 -1 -2 -2 -3 -3 -3 -4 -4 -4 -4 -4 -4 -4 -5 -5 -6 -6 -7 -8
6 6 6 5 5 4 3 2 2 2 1 -0 -1 -2 -2 -3 -3 -3 -4 -3 -3 -3 -4 -4 -4 -5 -5 -6 -6 -7 -7 -8